Home > Weather > Kriens > Past weeks

Flag for Switzerland Weather for the Past 2 Weeks in Kriens, Lucerne, Switzerland

Now
45 °F

Cool.


Feels Like: 45 °F
Forecast: 32 / 47 °F
Wind: 2 mph from Southwest

Location: Giswil

Current Time: Feb 6, 2016 at 1:44:00 PM

Latest Report: Feb 6, 2016 at 1:00 PM


Visibility: N/A

Pressure: 30.14 "Hg

Humidity: 81%

Dew point: 40 °F

Location of KriensLocation

Historic Weather in Kriens — Graph

°F

Kriens Temperature Yesterday

Maximum temperature yesterday: 50 °F (at 3:00 PM)
Minimum temperature yesterday: 30 °F (at 11:00 PM)
Average temperature yesterday: 41 °F

High & Low Weather Summary for the Past Weeks

 TemperatureHumidityPressure
High62 °F (Feb 1, 2:00 PM)100% (Jan 24, 8:00 AM)30.73 "Hg (Jan 24, 8:00 AM)
Low26 °F (Jan 24, 5:00 AM)46% (Jan 30, 8:00 PM)30.02 "Hg (Jan 31, 3:00 PM)
Average39 °F88%30.40 "Hg
* Reported Jan 22 12:00 Noon — Feb 6 12:00 Noon, Kriens, Weather by CustomWeather, © 2016

Note: Actual official high and low records may vary slightly from our data, if they occured in-between our weather recording intervals... More about our weather records

Advertising

Kriens Weather History for the Previous 24 Hours

 ConditionsComfort  
Time TempWeatherWind HumidityBarometerVisibility
12:00 PM
Sat, Feb 6
39 °FChilly.2 mph93%30.20 "HgN/A
11:00 AM34 °FChilly.1 mph99%30.24 "HgN/A
10:00 AM31 °FChilly.No wind99%30.27 "HgN/A
9:00 AM28 °FChilly.1 mph99%30.27 "HgN/A
8:00 AM28 °FChilly.1 mph99%30.26 "HgN/A
7:00 AM29 °FChilly.No wind99%30.26 "HgN/A
6:00 AM30 °FChilly.1 mph99%30.28 "HgN/A
5:00 AM30 °FChilly.No wind99%30.28 "HgN/A
4:00 AM29 °FChilly.1 mph100%30.29 "HgN/A
3:00 AM28 °FChilly.1 mph99%30.31 "HgN/A
2:00 AM28 °FChilly.No wind99%30.32 "HgN/A
1:00 AM29 °FChilly.1 mph99%30.34 "HgN/A
12:00 AM30 °FChilly.1 mph99%30.35 "HgN/A
11:00 PM
Fri, Feb 5
30 °FChilly.1 mph99%30.34 "HgN/A
9:00 PM33 °FChilly.No wind100%30.35 "HgN/A
8:00 PM33 °FChilly.1 mph99%30.35 "HgN/A
7:00 PM34 °FChilly.1 mph100%30.35 "HgN/A
6:00 PM38 °FChilly.2 mph95%30.35 "HgN/A
5:00 PM45 °FCool.5 mph83%30.33 "HgN/A
4:00 PM49 °FCool.2 mph75%30.32 "HgN/A
3:00 PM50 °FCool.1 mph71%30.33 "HgN/A
2:00 PM48 °FCool.2 mph77%30.37 "HgN/A
1:00 PM47 °FCool.1 mph79%30.39 "HgN/A
Weather by CustomWeather, © 2016

See weather overviewHow to use our weather pages